[[{"header":{"parameterUnit":"m.s-1","parameterCategory":1,"la1":30.2991,"la2":30.254,"lo1":-89.0895,"lo2":-89.0444,"dy":0.0017,"dx":0.0017,"nx":28,"ny":28,"refTime":"2025-11-10T09:00:00:Z","depth":0,"parameterNumber":2,"parameterNumberName":"U-component_of_WINDS"},"data":[0,0,0,0,0,0,0,0,0,0,0,0,0,0,0,0,0,0,0,0,0,0,0,0,0,0,0,0,0,0,0,0,0,0,0,0,0,0,0,0,0,0,0,0,0,0,0,0,0,0,0,0,0,0,0,0,0,0,2.6845,2.6845,0,2.6854,2.6855,2.6855,2.6831,2.683,2.6829,2.6829,2.6837,2.6838,2.6839,0,0,0,0,0,0,0,0,0,0,0,0,0,2.6806,2.6807,2.6845,2.6845,2.6845,2.6854,2.6855,2.6855,2.6831,2.683,2.6829,2.6828,2.6837,2.6838,2.6839,0,0,0,0,0,0,0,0,0,0,0,0,0,2.682,2.6808,2.6845,2.6835,2.6834,2.6854,2.6855,2.6855,2.6831,2.683,2.6829,2.6828,2.6837,2.6838,2.6839,2.687,0,0,2.6843,2.6844,0,0,0,0,0,0,0,0,2.682,2.6822,2.6836,2.6835,2.6835,2.684,2.6844,2.686,2.6832,2.6832,2.6829,2.6827,2.6839,2.684,2.6844,2.687,2.6871,2.6844,2.6844,2.6845,2.6845,0,0,0,0,0,0,0,2.6819,2.6821,2.6849,2.6836,2.6835,2.6829,2.683,2.6847,2.6842,2.6832,2.683,2.6832,2.6838,2.6843,2.6844,2.6871,2.6843,2.6845,2.6846,2.6846,2.6923,2.6924,0,0,0,0,0,0,2.6819,2.6821,2.6848,2.6849,2.6824,2.6831,2.6832,2.684,2.6841,2.6841,2.6833,2.6831,2.6841,2.6843,2.6845,2.688,2.6845,2.6846,2.6847,2.6922,2.6923,2.6924,0,0,0,0,0,0,2.6818,2.6822,2.6848,2.6834,2.6837,2.6833,2.6842,2.684,2.6845,2.6842,2.6841,2.6838,2.684,2.6843,2.6864,2.688,2.6847,2.6848,2.692,2.6922,2.6924,2.6952,0,0,0,0,0,0,2.6817,2.6822,2.6833,2.6835,2.6838,2.6867,2.6843,2.6841,2.6848,2.6845,2.6847,2.6846,2.684,2.6862,2.6865,2.6882,2.6849,2.6919,2.6921,2.6923,2.695,2.6955,2.6959,0,0,0,0,0,2.6816,2.684,2.6834,2.6837,2.6852,2.6868,2.687,2.6862,2.6849,2.686,2.6859,2.6846,2.6879,2.6864,2.6868,2.6885,2.6918,2.692,2.6923,2.6948,2.6954,2.6959,0,0,0,0,0,0,2.684,2.684,2.6833,2.6859,2.6864,2.6864,2.6878,2.6869,2.6877,2.6875,2.6865,2.6865,2.6888,2.6889,2.6873,2.6915,2.6896,2.6899,2.6913,2.6919,2.6924,2.6922,2.685,0,0,0,0,0,2.6848,2.6861,2.6861,2.6884,2.6887,2.6882,2.6889,2.6883,2.6887,2.6889,2.6889,2.6894,2.6905,2.6912,2.6922,2.6951,2.6951,2.6964,2.6969,2.6973,2.6975,2.699,2.6996,2.6933,2.6933,2.6933,0,0,2.6865,2.6867,2.6876,2.6889,2.6892,2.6905,2.6884,2.6899,2.6909,2.6891,2.6911,2.6912,2.6916,2.6941,2.6952,2.6942,2.6993,2.6976,2.6979,2.698,2.6994,2.7,2.7005,2.6935,2.6935,2.6935,0,0,2.6903,2.6906,2.6925,2.6929,2.6935,2.6932,2.6937,2.6939,2.6939,2.6959,2.6946,2.6958,2.6978,2.6982,2.6986,2.7028,2.7017,2.7032,2.7055,2.707,2.7075,2.7079,2.7093,2.7099,2.7035,2.7035,2.7035,0,2.6923,2.6943,2.6936,2.6952,2.6958,2.6944,2.6964,2.6968,2.6976,2.6981,2.697,2.6995,2.6997,2.7023,2.7033,2.7038,2.7043,2.703,2.7075,2.7079,2.7083,2.7096,2.7102,2.7037,2.7036,2.7036,2.7036,0,2.6967,2.6982,2.6997,2.7006,2.7014,2.7032,2.7028,2.7037,2.7031,2.7029,2.705,2.7053,2.7063,2.7069,2.7063,2.7095,2.7088,2.7077,2.7057,2.7091,2.7103,2.7108,2.7039,2.7038,2.7038,2.7037,0,0,2.7017,2.7024,2.703,2.7034,2.704,2.7051,2.7069,2.708,2.7088,2.7095,2.7109,2.7127,2.7117,2.7122,2.7116,2.713,2.7162,2.7116,2.7116,2.7124,2.7196,2.7204,2.721,2.7155,2.7156,2.7157,2.7195,0,2.7054,2.7084,2.708,2.7109,2.7122,2.711,2.7126,2.7131,2.7131,2.7142,2.7142,2.7154,2.714,2.7143,2.7156,2.7155,2.7176,2.7153,2.7168,2.7168,2.7165,2.7216,2.7224,2.726,2.72,2.7201,2.7202,0,2.71,2.7109,2.714,2.7145,2.7151,2.7164,2.7175,2.7186,2.7192,2.7191,2.7198,2.7191,2.7209,2.719,2.7214,2.7199,2.7205,2.7206,2.7207,2.7207,2.7186,2.7216,2.7271,2.7276,2.7209,2.7209,2.7208,0,2.7132,2.7153,2.7174,2.7178,2.7185,2.7195,2.7198,2.7204,2.7211,2.722,2.7225,2.7236,2.7242,2.7251,2.7246,2.7234,2.7271,2.7253,2.727,2.727,2.7277,2.7276,2.7332,2.7284,2.7284,2.7284,2.7284,0,2.7172,2.7191,2.7189,2.7201,2.7223,2.7218,2.7239,2.7241,2.7246,2.7259,2.725,2.7262,2.7257,2.7269,2.7266,2.7286,2.7289,2.7289,2.7287,2.7288,2.7288,2.7291,2.7288,2.7285,2.7285,2.7284,2.7284,0,2.721,2.721,2.7232,2.7237,2.7239,2.7255,2.7259,2.7271,2.7271,2.7288,2.7291,2.7291,2.7305,2.7303,2.7318,2.7316,2.7341,2.7337,2.7339,2.7337,2.7354,2.7352,2.7413,2.742,2.7368,2.7369,2.7369,0,2.7235,2.725,2.7257,2.7266,2.727,2.7284,2.7291,2.7288,2.7296,2.7306,2.7317,2.733,2.734,2.7363,2.7364,2.7376,2.7371,2.7392,2.7373,2.7374,2.737,2.7369,2.737,2.7395,2.7396,2.7396,2.7396,0,2.7279,2.7278,2.729,2.7303,2.7312,2.7322,2.733,2.7338,2.7335,2.7345,2.736,2.7368,2.7384,2.7397,2.7409,2.7412,2.7403,2.7403,2.7407,2.7408,2.7408,2.7407,2.7347,2.7401,2.74,2.74,2.74,2.74,2.731,2.7323,2.733,2.7344,2.7351,2.7359,2.7371,2.7373,2.7385,2.7399,2.7396,2.7413,2.742,2.7434,2.7439,2.7452,2.7444,2.745,2.7452,2.7453,2.7455,2.7407,2.7454,2.7454,2.7454,2.7453,2.7453,0,2.7352,2.7357,2.737,2.7383,2.7394,2.7387,2.7397,2.7406,2.7421,2.7429,2.744,2.7457,2.747,2.7473,2.7485,2.7495,2.7492,2.7498,2.7497,2.7497,2.7461,2.7456,2.7501,2.7501,2.7501,2.7501,2.7501,2.7501,2.7375,2.7396,2.7397,2.7421,2.7426,2.7443,2.7448,2.7456,2.7463,2.7482,2.7494,2.7496,2.7502,2.7515,2.7527,2.7528,2.7532,2.754,2.7539,2.7505,2.75,2.7495,2.749,2.7541,2.7541,2.7574,2.7574,2.7574]},{"header":{"parameterUnit":"m.s-1","parameterCategory":1,"la1":30.2991,"la2":30.254,"lo1":-89.0895,"lo2":-89.0444,"dy":0.0017,"dx":0.0017,"nx":28,"ny":28,"refTime":"2025-11-10T09:00:00:Z","depth":0,"parameterNumber":3,"parameterNumberName":"V-component_of_WINDS"},"data":[0,0,0,0,0,0,0,0,0,0,0,0,0,0,0,0,0,0,0,0,0,0,0,0,0,0,0,0,0,0,0,0,0,0,0,0,0,0,0,0,0,0,0,0,0,0,0,0,0,0,0,0,0,0,0,0,0,0,-8.0067,-8.007,0,-8.0282,-8.0284,-8.0287,-8.0203,-8.0198,-8.0193,-8.0188,-8.0402,-8.0412,-8.0422,0,0,0,0,0,0,0,0,0,0,0,0,0,-7.9578,-7.9588,-8.0067,-8.007,-8.0073,-8.0282,-8.0285,-8.0287,-8.0204,-8.0198,-8.0192,-8.0186,-8.0398,-8.0411,-8.0423,0,0,0,0,0,0,0,0,0,0,0,0,0,-7.9791,-7.9591,-8.0067,-8.0056,-8.0057,-8.0281,-8.0285,-8.0288,-8.0205,-8.0198,-8.019,-8.0183,-8.0394,-8.0409,-8.0425,-8.0669,0,0,-8.0472,-8.0479,0,0,0,0,0,0,0,0,-7.978,-7.9809,-8.0055,-8.0057,-8.0059,-8.0208,-8.019,-8.0416,-8.0207,-8.0149,-8.0188,-8.018,-8.0343,-8.0362,-8.0419,-8.0679,-8.0688,-8.0473,-8.0483,-8.0489,-8.0494,0,0,0,0,0,0,0,-7.9765,-7.98,-8.0152,-8.0059,-8.0061,-8.0039,-8.0061,-8.0233,-8.0285,-8.0153,-8.0148,-8.0175,-8.0342,-8.0404,-8.0423,-8.0692,-8.0473,-8.0487,-8.0496,-8.0502,-8.1164,-8.1171,0,0,0,0,0,0,-7.975,-7.9788,-8.0145,-8.0158,-7.9898,-8.0054,-8.0078,-8.0168,-8.0283,-8.0293,-8.0181,-8.017,-8.0381,-8.0405,-8.043,-8.0725,-8.0489,-8.0504,-8.0513,-8.1155,-8.1165,-8.1174,0,0,0,0,0,0,-7.974,-7.9783,-8.0136,-7.9972,-8.0015,-8.007,-8.0171,-8.0176,-8.0237,-8.0304,-8.0312,-8.0235,-8.0376,-8.0408,-8.0611,-8.0731,-8.0511,-8.0525,-8.1146,-8.1158,-8.117,-8.1316,0,0,0,0,0,0,-7.9726,-7.978,-7.9875,-7.9975,-8.0024,-8.0316,-8.0179,-8.0185,-8.0265,-8.0253,-8.0356,-8.0366,-8.0373,-8.0588,-8.0626,-8.0748,-8.0537,-8.1135,-8.1151,-8.1166,-8.13,-8.1331,-8.1358,0,0,0,0,0,-7.9709,-7.9906,-7.988,-7.9924,-8.0145,-8.0323,-8.0351,-8.0357,-8.0275,-8.037,-8.0413,-8.0363,-8.0712,-8.061,-8.0652,-8.078,-8.1128,-8.1147,-8.1165,-8.1287,-8.1325,-8.1357,0,0,0,0,0,0,-7.9816,-7.9919,-7.9891,-8.0127,-8.0217,-8.0309,-8.0429,-8.0397,-8.0511,-8.0495,-8.0494,-8.0519,-8.0728,-8.0774,-8.0659,-8.1023,-8.0907,-8.0935,-8.0986,-8.1022,-8.1051,-8.1035,-8.055,0,0,0,0,0,-7.9868,-8.0006,-8.0087,-8.0287,-8.0334,-8.0374,-8.0452,-8.0449,-8.0541,-8.0579,-8.0636,-8.0726,-8.0856,-8.0941,-8.1064,-8.1306,-8.1327,-8.1415,-8.1444,-8.1467,-8.1492,-8.1623,-8.1663,-8.1236,-8.1235,-8.1235,0,0,-7.9974,-8.0047,-8.0134,-8.031,-8.038,-8.0522,-8.0407,-8.0561,-8.0666,-8.0601,-8.0797,-8.0842,-8.0943,-8.1166,-8.1267,-8.1211,-8.1614,-8.1491,-8.1509,-8.1521,-8.1646,-8.1686,-8.1722,-8.1248,-8.1246,-8.1244,0,0,-8.0242,-8.0311,-8.0486,-8.0558,-8.0666,-8.0692,-8.0734,-8.0831,-8.0859,-8.1056,-8.1011,-8.1134,-8.1358,-8.1431,-8.1498,-8.1794,-8.1752,-8.1834,-8.1985,-8.2113,-8.2146,-8.2176,-8.2282,-8.232,-8.1857,-8.1858,-8.1858,0,-8.036,-8.0574,-8.0578,-8.0738,-8.0816,-8.0766,-8.0942,-8.1011,-8.1153,-8.1208,-8.1143,-8.1423,-8.1487,-8.1727,-8.18,-8.1855,-8.1902,-8.1822,-8.2142,-8.2172,-8.2199,-8.23,-8.234,-8.1867,-8.1866,-8.1865,-8.1864,0,-8.0715,-8.0864,-8.0991,-8.1132,-8.1224,-8.1391,-8.1419,-8.1511,-8.15,-8.1532,-8.1732,-8.1807,-8.1945,-8.2002,-8.1991,-8.2241,-8.2203,-8.214,-8.2023,-8.2249,-8.2344,-8.2383,-8.188,-8.1877,-8.1874,-8.1872,0,0,-8.1056,-8.1198,-8.1244,-8.1308,-8.1424,-8.1538,-8.1701,-8.1838,-8.1918,-8.2017,-8.2153,-8.2344,-8.2288,-8.2363,-8.236,-8.2473,-8.2703,-8.2396,-8.2399,-8.2451,-8.2982,-8.3029,-8.3074,-8.2675,-8.2683,-8.2689,-8.2974,0,-8.1332,-8.1622,-8.1631,-8.1895,-8.2032,-8.1987,-8.2129,-8.2215,-8.2249,-8.2368,-8.2404,-8.254,-8.2455,-8.25,-8.261,-8.2652,-8.2809,-8.2631,-8.2801,-8.2807,-8.2778,-8.3123,-8.3173,-8.3439,-8.3011,-8.3017,-8.3022,0,-8.1694,-8.1808,-8.2086,-8.2183,-8.2241,-8.2369,-8.2495,-8.2611,-8.2706,-8.2722,-8.2808,-8.2789,-8.2954,-8.2832,-8.3059,-8.2938,-8.3007,-8.3039,-8.3049,-8.3065,-8.2929,-8.3149,-8.3524,-8.3564,-8.308,-8.3075,-8.3071,0,-8.1915,-8.2137,-8.2333,-8.2389,-8.2506,-8.2597,-8.265,-8.2738,-8.282,-8.2929,-8.2982,-8.3109,-8.3178,-8.3276,-8.329,-8.32,-8.3519,-8.3398,-8.3536,-8.3536,-8.3605,-8.3601,-8.3997,-8.365,-8.3649,-8.3648,-8.3648,0,-8.2224,-8.2396,-8.2434,-8.2555,-8.2746,-8.2753,-8.2942,-8.2987,-8.3066,-8.3193,-8.316,-8.328,-8.3292,-8.3414,-8.3426,-8.3613,-8.3644,-8.3661,-8.3662,-8.3665,-8.3663,-8.371,-8.3692,-8.3659,-8.3657,-8.3655,-8.3653,0,-8.2503,-8.2536,-8.2747,-8.2841,-8.2869,-8.3006,-8.3085,-8.32,-8.323,-8.3392,-8.3429,-8.3477,-8.362,-8.3644,-8.3811,-8.3819,-8.4042,-8.4024,-8.4011,-8.4009,-8.4146,-8.4133,-8.4587,-8.4647,-8.4261,-8.4264,-8.4267,0,-8.2698,-8.283,-8.294,-8.3024,-8.3082,-8.3217,-8.3301,-8.3313,-8.3401,-8.352,-8.362,-8.376,-8.3872,-8.4102,-8.415,-8.4278,-8.4263,-8.4413,-8.4281,-8.428,-8.4266,-8.4258,-8.4271,-8.4438,-8.4443,-8.4446,-8.4449,0,-8.3041,-8.3051,-8.3175,-8.3305,-8.3407,-8.351,-8.3606,-8.3676,-8.37,-8.3801,-8.3948,-8.4036,-8.4207,-8.4346,-8.4473,-8.4524,-8.4492,-8.449,-8.4529,-8.4533,-8.452,-8.4529,-8.4081,-8.4479,-8.4476,-8.4474,-8.4472,-8.4471,-8.3285,-8.34,-8.3496,-8.3635,-8.3709,-8.3801,-8.3913,-8.3959,-8.4082,-8.4225,-8.4223,-8.4384,-8.4475,-8.4643,-8.4703,-8.4828,-8.4779,-8.4835,-8.485,-8.4863,-8.4877,-8.45,-8.4851,-8.485,-8.4849,-8.4848,-8.4848,0,-8.3626,-8.3686,-8.3814,-8.3951,-8.4061,-8.4021,-8.4126,-8.422,-8.4363,-8.4452,-8.4564,-8.4732,-8.4867,-8.4926,-8.5058,-8.5147,-8.5135,-8.5181,-8.5175,-8.5187,-8.4913,-8.4866,-8.5189,-8.5189,-8.5189,-8.5189,-8.5188,-8.5188,-8.3817,-8.4011,-8.4032,-8.4262,-8.4319,-8.4478,-8.4542,-8.4625,-8.4697,-8.4887,-8.5,-8.5038,-8.5115,-8.5253,-8.5374,-8.5388,-8.5438,-8.5492,-8.5498,-8.5241,-8.5206,-8.5173,-8.513,-8.5502,-8.5503,-8.5763,-8.5765,-8.5767]}]]